#timestamp,LO_Frequency,Hit,StdDev 
1692680415.9,286046997.7,N
1692680435.7,286046999.3,N
1692680455.6,286046997.2,N
1692680475.4,286046995.0,N
1692680495.2,286046995.2,N
1692680515.1,286046998.3,N
1692680516.0,286046998.3,N
1692680535.8,286046996.6,N
1692680555.6,286046999.3,N
1692680575.5,286046996.9,N
1692680595.3,286046999.6,N
1692680615.1,286046997.8,N
1692680635.9,286046995.3,N
1692680655.7,286046995.8,N
1692680675.5,286046995.4,N
1692680695.4,286046995.1,N
1692680715.2,286046995.3,N
1692680735.0,286046996.5,N
1692680735.9,286046996.5,N
1692680755.8,286046997.8,N
1692680775.6,286047003.5,N
1692680795.4,286047002.3,N
1692680815.3,286047000.5,N
1692680835.1,286047000.8,N
1692680855.8,286046999.0,N
1692680875.7,286046996.6,N
1692680895.5,286046997.9,N
1692680915.3,286046995.2,N
1692680935.2,286046997.6,N
1692680955.0,286046997.5,N
1692680955.9,286046997.5,N
1692680975.7,286046997.5,N
1692680995.6,286046999.5,N
1692681015.4,286046997.4,N
1692681035.2,286046997.3,N
1692681055.1,286046998.0,N
1692681056.0,286046998.0,N
1692681075.8,286046999.3,N
1692681095.6,286046996.5,N
1692681115.5,286046996.8,N
1692681135.3,286046997.3,N
1692681155.1,286046996.6,N
1692681175.9,286046997.1,N
1692681195.7,286046996.5,N
1692681215.5,286046999.4,N
1692681235.4,286046999.3,N
1692681255.2,286046999.6,N
1692681275.0,286046999.5,N
1692681275.9,286046999.5,N
1692681295.8,286046999.0,N
1692681315.6,286046999.3,N
1692681335.4,286046998.8,N
1692681355.3,286047004.7,Y
1692681375.1,286047013.9,P
1692681395.8,286047008.0,N
1692681415.7,286047006.1,N
1692681435.5,286047005.8,N
1692681455.3,286047003.7,N
1692681475.2,286047001.3,N
1692681495.0,286047001.9,N
1692681495.9,286047001.9,N
1692681515.7,286047002.8,N
1692681535.6,286046999.9,N
1692681555.4,286047002.1,N
1692681575.2,286047002.8,N
1692681595.1,286047000.0,N
1692681596.0,286047000.0,N
1692681615.8,286047000.9,N
1692681635.7,286047000.4,N
1692681655.5,286047000.2,N
1692681675.3,286046999.8,N
1692681695.1,286047000.2,N
1692681715.9,286047002.6,N
1692681735.7,286047000.2,N
1692681755.5,286046999.7,N
1692681775.4,286047002.7,N
1692681795.2,286047000.4,N
1692681815.0,286046999.8,N
1692681816.0,286046999.8,N
1692681835.8,286047002.6,N
1692681855.6,286047002.7,N
1692681875.5,286047000.1,N
1692681895.3,286047002.5,N
1692681915.1,286047001.7,N
1692681935.9,286047001.7,N
1692681955.7,286047001.6,N
1692681975.5,286047002.0,N
1692681995.4,286047001.7,N
1692682015.2,286047020.4,Y
1692682035.0,286047014.1,P
1692682035.9,286047014.1,N
1692682055.8,286047009.3,N
1692682075.6,286047008.6,N
1692682095.4,286047007.4,N
1692682115.3,286047004.2,N
1692682135.1,286047003.9,N
1692682136.0,286047003.9,N
1692682155.8,286047003.5,N
1692682175.7,286047003.1,N
1692682195.5,286047003.4,N
1692682215.3,286047004.1,N
1692682235.2,286047004.3,N
1692682255.9,286047003.0,N
1692682275.7,286047002.0,N
1692682295.6,286047002.8,N
1692682315.4,286046999.8,N
1692682335.2,286047000.9,N
1692682355.1,286047000.5,N
1692682356.0,286047000.5,N
1692682375.8,286047000.8,N
1692682395.6,286047005.2,N
1692682415.5,286047001.9,N
1692682435.3,286047002.8,N
1692682455.1,286047000.3,N
1692682475.9,286047000.7,N
1692682495.7,286047000.4,N
1692682515.5,286047000.1,N
1692682535.4,286047001.0,N
1692682555.2,286047000.9,N
1692682575.0,286047000.8,N
1692682575.9,286047000.8,N
1692682595.8,286047002.6,N
1692682615.6,286047016.7,Y
1692682635.4,286047007.3,P
1692682655.3,286047005.2,N
1692682675.1,286047003.4,N
1692682676.0,286047003.4,N
1692682695.8,286047001.6,N
1692682715.7,286047002.6,N
1692682735.5,286047002.1,N
1692682755.3,286046999.8,N
1692682775.2,286046998.4,N
1692682795.9,286046999.1,N
1692682815.7,286046999.0,N
1692682835.6,286046998.6,N
1692682855.4,286046998.5,N
1692682875.2,286046999.5,N
1692682895.1,286046999.3,N
1692682896.0,286046999.3,N
1692682915.8,286046998.7,N
1692682935.6,286046996.9,N
1692682955.5,286046996.6,N
1692682975.3,286046996.7,N
1692682995.1,286046996.7,N
1692683015.9,286046996.8,N
1692683035.7,286046997.0,N
1692683055.5,286046999.6,N
1692683075.4,286046996.9,N
1692683095.2,286046997.6,N
1692683115.0,286046999.0,N
1692683115.9,286046999.0,N
1692683135.8,286046999.4,N
1692683155.6,286047006.7,N
1692683175.4,286047006.0,N
1692683195.3,286046997.3,N
1692683215.1,286046997.2,N
1692683216.0,286046997.2,N
1692683235.8,286046997.0,N
1692683255.7,286046996.5,N
1692683275.5,286046997.4,N
1692683295.3,286046997.1,N
1692683315.2,286046999.2,N
1692683335.9,286046999.5,N
1692683355.7,286046999.4,N
1692683375.6,286047004.5,N
1692683395.4,286047004.0,N
1692683415.2,286046999.9,N
1692683435.1,286047000.3,N
1692683436.0,286047000.3,N
1692683455.8,286047002.3,N
1692683475.6,286046996.5,N
1692683495.5,286046999.4,N
1692683515.3,286047006.7,N
1692683535.1,286047004.2,N
1692683555.9,286047002.1,N
1692683575.7,286047000.5,N
1692683595.5,286046999.8,N
1692683615.4,286046998.2,N
1692683635.2,286046998.9,N
1692683655.0,286046996.8,N
1692683655.9,286046996.8,N
1692683675.8,286046996.5,N
1692683695.6,286046999.5,N
1692683715.4,286047001.9,N
1692683735.3,286047000.6,N
1692683755.1,286047000.8,N
1692683775.8,286047001.2,N
1692683795.7,286046997.2,N
1692683815.5,286046997.4,N
1692683835.3,286046997.3,N
1692683855.2,286046996.8,N
1692683875.9,286046997.4,N
1692683895.7,286046996.9,N
1692683915.6,286046999.4,N
1692683935.4,286046999.2,N
1692683955.2,286046996.7,N
1692683975.1,286046996.7,N
1692683976.0,286046996.7,N
1692683995.8,286046997.3,N
